When you browse on this site, cookies collect data to enhance your experience and personalize the content and advertising you see.
Visit our Privacy Policy to learn more. By continuing to use the site, you agree to this use of cookies and data.
  • în România
  • Lista ţărilor
  • Pe 7 zile
  • Temperatura apei
  • Hartă satelitară
  • Meteo pe hartă
  • Widget-uri
  • user-avatar
    Intrare

    Meteo pe oră la Petra Dubrava

    Astăzi, 21 Mai, Marţi

    Timp Temperatura Precipitaţii Vânt Presiune Umiditate
    00:00 +5°C° 0 mm 2 m/s 750 mmHg 73%
    01:00 +4°C° 0 mm 2 m/s 750 mmHg 75%
    02:00 +4°C° 0 mm 2 m/s 750 mmHg 76%
    03:00 +4°C° 0 mm 2 m/s 750 mmHg 82%
    04:00 +4°C° 0 mm 3 m/s 751 mmHg 80%
    05:00 +5°C° 0 mm 3 m/s 751 mmHg 77%
    06:00 +6°C° 0 mm 4 m/s 751 mmHg 74%
    07:00 +8°C° 0.1 mm 4 m/s 751 mmHg 65%
    08:00 +10°C° 0.1 mm 4 m/s 751 mmHg 57%
    09:00 +12°C° 0 mm 5 m/s 751 mmHg 49%
    10:00 +12°C° 0 mm 5 m/s 751 mmHg 47%
    11:00 +13°C° 0 mm 5 m/s 751 mmHg 45%
    12:00 +13°C° 0 mm 5 m/s 751 mmHg 44%
    13:00 +14°C° 0 mm 5 m/s 751 mmHg 43%
    14:00 +14°C° 0 mm 5 m/s 751 mmHg 43%
    15:00 +14°C° 0 mm 5 m/s 751 mmHg 42%
    16:00 +14°C° 0 mm 4 m/s 751 mmHg 46%
    17:00 +14°C° 0 mm 3 m/s 751 mmHg 50%
    18:00 +13°C° 0 mm 3 m/s 751 mmHg 54%
    19:00 +12°C° 0 mm 3 m/s 751 mmHg 57%
    20:00 +12°C° 0 mm 2 m/s 751 mmHg 59%
    21:00 +9°C° 0 mm 2 m/s 751 mmHg 61%
    22:00 +9°C° 0 mm 2 m/s 751 mmHg 63%
    23:00 +8°C° 0 mm 2 m/s 751 mmHg 64%

    Mâine, 22 Mai, Miercuri

    Timp Temperatura Precipitaţii Vânt Presiune Umiditate
    00:00 +8°C° 0 mm 2 m/s 751 mmHg 66%
    01:00 +8°C° 0 mm 2 m/s 751 mmHg 67%
    02:00 +7°C° 0 mm 2 m/s 751 mmHg 68%
    03:00 +7°C° 0 mm 2 m/s 751 mmHg 69%
    04:00 +8°C° 0 mm 2 m/s 751 mmHg 68%
    05:00 +9°C° 0 mm 2 m/s 750 mmHg 67%
    06:00 +10°C° 0 mm 2 m/s 750 mmHg 66%
    07:00 +11°C° 0.5 mm 1 m/s 750 mmHg 70%
    08:00 +11°C° 0.5 mm 1 m/s 750 mmHg 73%
    09:00 +11°C° 0.5 mm 1 m/s 749 mmHg 76%
    10:00 +11°C° 1.8 mm 1 m/s 749 mmHg 81%
    11:00 +10°C° 1.8 mm 2 m/s 749 mmHg 85%
    12:00 +9°C° 1.8 mm 3 m/s 749 mmHg 90%
    13:00 +11°C° 0.2 mm 3 m/s 748 mmHg 86%
    14:00 +12°C° 0.2 mm 3 m/s 748 mmHg 82%
    15:00 +14°C° 0.2 mm 3 m/s 748 mmHg 78%
    16:00 +14°C° 0.5 mm 2 m/s 747 mmHg 81%
    17:00 +14°C° 0.5 mm 2 m/s 747 mmHg 85%
    18:00 +14°C° 0.5 mm 2 m/s 747 mmHg 89%
    19:00 +14°C° 0.4 mm 2 m/s 746 mmHg 91%
    20:00 +13°C° 0.4 mm 2 m/s 746 mmHg 92%
    21:00 +13°C° 0.4 mm 2 m/s 746 mmHg 94%
    22:00 +13°C° 0 mm 2 m/s 746 mmHg 93%
    23:00 +12°C° 0 mm 3 m/s 746 mmHg 91%

    Poimâine, 23 Mai, Joi

    Timp Temperatura Precipitaţii Vânt Presiune Umiditate
    00:00 +11°C° 0 mm 3 m/s 745 mmHg 89%
    01:00 +11°C° 0 mm 3 m/s 745 mmHg 89%
    02:00 +11°C° 0 mm 4 m/s 745 mmHg 89%
    03:00 +11°C° 0 mm 4 m/s 745 mmHg 89%
    04:00 +12°C° 0 mm 4 m/s 745 mmHg 85%
    05:00 +13°C° 0 mm 4 m/s 744 mmHg 82%
    06:00 +13°C° 0 mm 4 m/s 744 mmHg 78%
    07:00 +15°C° 0 mm 5 m/s 744 mmHg 71%
    08:00 +16°C° 0 mm 6 m/s 744 mmHg 64%
    09:00 +17°C° 0 mm 6 m/s 744 mmHg 57%
    10:00 +18°C° 0 mm 7 m/s 743 mmHg 53%
    11:00 +20°C° 0 mm 7 m/s 743 mmHg 48%
    12:00 +21°C° 0 mm 7 m/s 743 mmHg 44%
    13:00 +21°C° 0 mm 7 m/s 742 mmHg 44%
    14:00 +22°C° 0 mm 7 m/s 742 mmHg 44%
    15:00 +22°C° 0 mm 7 m/s 742 mmHg 44%
    16:00 +21°C° 0 mm 6 m/s 741 mmHg 48%
    17:00 +20°C° 0 mm 6 m/s 741 mmHg 52%
    18:00 +19°C° 0 mm 5 m/s 740 mmHg 56%
    19:00 +17°C° 0 mm 5 m/s 740 mmHg 60%
    20:00 +16°C° 0 mm 5 m/s 740 mmHg 63%
    21:00 +14°C° 0 mm 4 m/s 740 mmHg 67%
    22:00 +14°C° 0 mm 5 m/s 739 mmHg 73%
    23:00 +14°C° 0 mm 5 m/s 739 mmHg 78%

    24 Mai, Vineri

    Timp Temperatura Precipitaţii Vânt Presiune Umiditate
    00:00 +14°C° 0 mm 5 m/s 739 mmHg 84%
    01:00 +13°C° 1 mm 4 m/s 739 mmHg 87%
    02:00 +13°C° 1 mm 4 m/s 739 mmHg 90%
    03:00 +13°C° 1 mm 4 m/s 739 mmHg 93%
    04:00 +12°C° 1.1 mm 5 m/s 740 mmHg 91%
    05:00 +10°C° 1.1 mm 5 m/s 740 mmHg 89%
    06:00 +9°C° 1.1 mm 6 m/s 740 mmHg 87%
    07:00 +9°C° 0 mm 6 m/s 741 mmHg 79%
    08:00 +10°C° 0 mm 6 m/s 742 mmHg 72%
    09:00 +11°C° 0 mm 6 m/s 742 mmHg 65%
    10:00 +13°C° 0 mm 6 m/s 743 mmHg 61%
    11:00 +13°C° 0 mm 6 m/s 743 mmHg 57%
    12:00 +14°C° 0 mm 6 m/s 744 mmHg 54%
    13:00 +14°C° 0 mm 6 m/s 744 mmHg 53%
    14:00 +14°C° 0 mm 6 m/s 745 mmHg 53%
    15:00 +14°C° 0 mm 5 m/s 745 mmHg 53%
    16:00 +13°C° 0 mm 5 m/s 745 mmHg 55%
    17:00 +13°C° 0 mm 4 m/s 746 mmHg 58%
    18:00 +12°C° 0 mm 4 m/s 746 mmHg 61%
    19:00 +11°C° 0 mm 4 m/s 747 mmHg 63%
    20:00 +9°C° 0 mm 3 m/s 747 mmHg 65%
    21:00 +8°C° 0 mm 3 m/s 748 mmHg 67%
    22:00 +7°C° 0 mm 2 m/s 748 mmHg 67%
    23:00 +7°C° 0 mm 2 m/s 748 mmHg 68%

    25 Mai, Sâmbătă

    Timp Temperatura Precipitaţii Vânt Presiune Umiditate
    00:00 +6°C° 0 mm 2 m/s 749 mmHg 68%
    01:00 +6°C° 0 mm 2 m/s 749 mmHg 69%
    02:00 +7°C° 0 mm 1 m/s 749 mmHg 69%
    03:00 +6°C° 0 mm 1 m/s 749 mmHg 70%
    04:00 +7°C° 0 mm 1 m/s 750 mmHg 67%
    05:00 +8°C° 0 mm 1 m/s 750 mmHg 64%
    06:00 +9°C° 0 mm 1 m/s 751 mmHg 61%
    07:00 +11°C° 0 mm 1 m/s 751 mmHg 55%
    08:00 +12°C° 0 mm 1 m/s 751 mmHg 49%
    09:00 +13°C° 0 mm 1 m/s 751 mmHg 43%
    10:00 +14°C° 0 mm 1 m/s 751 mmHg 42%
    11:00 +15°C° 0 mm 1 m/s 751 mmHg 41%
    12:00 +16°C° 0 mm 1 m/s 751 mmHg 39%
    13:00 +16°C° 0 mm 2 m/s 751 mmHg 39%
    14:00 +16°C° 0 mm 2 m/s 750 mmHg 39%
    15:00 +17°C° 0 mm 2 m/s 750 mmHg 39%
    16:00 +16°C° 0 mm 2 m/s 750 mmHg 43%
    17:00 +16°C° 0 mm 2 m/s 750 mmHg 47%
    18:00 +15°C° 0 mm 2 m/s 750 mmHg 52%
    19:00 +14°C° 0 mm 2 m/s 750 mmHg 54%
    20:00 +11°C° 0 mm 3 m/s 750 mmHg 56%
    21:00 +10°C° 0 mm 3 m/s 750 mmHg 59%
    22:00 +10°C° 0 mm 3 m/s 750 mmHg 60%
    23:00 +9°C° 0 mm 3 m/s 750 mmHg 62%

    26 Mai, Duminică

    Timp Temperatura Precipitaţii Vânt Presiune Umiditate
    00:00 +8°C° 0 mm 4 m/s 749 mmHg 63%
    01:00 +7°C° 0 mm 4 m/s 749 mmHg 64%
    02:00 +7°C° 0 mm 4 m/s 749 mmHg 65%
    03:00 +7°C° 0 mm 4 m/s 749 mmHg 65%
    04:00 +8°C° 0 mm 4 m/s 749 mmHg 65%
    05:00 +8°C° 0 mm 5 m/s 749 mmHg 64%
    06:00 +9°C° 0 mm 5 m/s 748 mmHg 63%
    07:00 +11°C° 0 mm 6 m/s 748 mmHg 60%
    08:00 +13°C° 0 mm 6 m/s 748 mmHg 57%
    09:00 +15°C° 0 mm 7 m/s 748 mmHg 53%
    10:00 +16°C° 0 mm 7 m/s 747 mmHg 52%
    11:00 +17°C° 0 mm 7 m/s 747 mmHg 50%
    12:00 +18°C° 0 mm 7 m/s 746 mmHg 49%
    13:00 +17°C° 0.1 mm 7 m/s 746 mmHg 54%
    14:00 +17°C° 0.1 mm 6 m/s 746 mmHg 58%
    15:00 +16°C° 0.1 mm 6 m/s 745 mmHg 63%
    16:00 +16°C° 0 mm 6 m/s 744 mmHg 65%
    17:00 +15°C° 0 mm 6 m/s 744 mmHg 66%
    18:00 +15°C° 0 mm 6 m/s 743 mmHg 68%
    19:00 +15°C° 0.1 mm 6 m/s 743 mmHg 67%
    20:00 +15°C° 0.1 mm 6 m/s 742 mmHg 66%
    21:00 +15°C° 0.1 mm 6 m/s 742 mmHg 65%
    22:00 +15°C° 0.2 mm 6 m/s 741 mmHg 70%
    23:00 +15°C° 0.2 mm 6 m/s 741 mmHg 74%
    Arată mai mult